Lapse_Rate
4.7 4.8 4.9 4.9 4.6 5.2 4.7 5.1 5.7 5.7 5.8 5.0 4.5 4.7 5.2 5.1 5.1 4.8 4.3 4.2 4.6 4.5 4.3 4.1 3.6 4.5 5.1 3.2 3.1 2.0 1.7 2.0 1.8 1.4 2.8 2.1 1.9 3.0 5.0 5.0 6.0 4.8 4.2
4.8 4.6 5.0 5.4 5.7 5.3 5.7 6.1 5.5 5.5 5.4 5.2 4.8 4.2 4.5 4.7 4.8 5.1 5.0 5.1 4.4 3.9 4.7 4.2 4.6 4.7 4.7 6.3 3.3 2.9 2.5 1.6 2.5 3.5 2.7 2.4 2.2 4.3 5.5 4.7 5.1 6.9 5.4
5.2 5.3 5.5 5.8 5.4 4.5 3.7 4.0 4.3 4.6 5.1 5.8 5.8 5.1 4.6 4.4 4.8 4.9 4.9 4.6 4.9 4.9 4.6 4.9 5.4 4.8 4.4 5.2 3.4 3.8 4.5 3.5 2.1 3.1 3.2 2.9 2.9 3.8 4.6 3.9 3.9 4.0 5.4
4.6 4.3 4.3 4.1 3.7 3.2 3.0 3.1 3.0 3.2 4.0 4.8 5.1 5.2 5.3 5.2 4.9 4.8 4.8 5.1 5.2 5.1 5.0 4.4 4.9 5.3 4.7 4.8 4.0 5.0 3.8 3.8 4.1 2.9 3.5 3.5 3.5 3.9 4.5 4.4 4.0 3.4 4.1
3.9 3.8 3.7 3.7 3.7 3.7 3.7 3.9 4.3 4.5 4.6 4.3 4.7 4.5 4.5 5.0 6.5 5.4 4.8 5.4 5.5 5.4 4.9 4.7 4.6 4.5 3.7 3.5 4.6 4.1 4.7 4.4 4.3 4.9 3.6 3.0 4.1 3.6 4.0 3.3 3.6 3.9 4.6
5.0 5.1 4.6 5.1 5.2 5.0 4.8 4.7 4.6 4.5 4.8 4.9 4.6 4.7 4.6 6.0 5.6 4.2 4.4 3.9 4.4 4.8 4.6 4.3 4.2 4.0 4.1 2.8 2.4 3.1 3.1 3.7 4.0 4.4 4.6 4.7 5.4 4.3 3.3 3.9 3.3 3.1 3.5
6.1 6.1 5.5 5.5 5.4 5.2 5.2 5.3 5.3 5.2 5.3 5.1 5.0 5.0 5.5 5.1 4.5 4.4 4.4 3.7 3.9 4.2 4.3 4.2 4.4 5.8 4.2 4.3 3.9 3.1 2.3 2.3 3.0 4.8 5.0 5.1 5.1 4.3 4.8 3.6 2.7 2.7 3.3
5.0 4.9 5.0 5.0 5.2 5.3 5.5 5.6 5.4 5.1 5.0 4.8 5.4 5.2 5.6 6.2 4.8 4.3 4.4 3.9 3.8 4.1 4.3 4.2 4.1 4.3 4.6 4.5 4.9 5.0 4.6 3.9 3.0 2.8 4.2 5.4 5.2 5.5 3.7 4.9 4.3 4.3 3.8
5.1 5.4 5.5 5.1 5.3 5.3 5.1 4.9 4.8 4.6 4.5 5.2 6.0 5.6 5.3 5.6 4.3 4.2 4.3 4.7 4.7 4.3 4.3 4.5 4.5 4.5 3.9 3.9 4.5 4.1 4.5 4.1 2.7 1.6 1.1 1.8 2.2 2.7 3.5 3.1 4.6 4.5 4.7
3.1 3.5 4.0 4.6 5.0 5.0 4.8 4.7 4.7 4.3 4.7 5.7 5.8 5.8 5.5 5.6 4.9 4.0 3.9 4.7 4.2 5.4 4.7 4.5 4.7 4.8 3.5 3.0 4.1 4.1 4.6 4.3 4.3 4.7 4.1 1.7 0.9 1.8 1.7 3.0 4.6 4.1 4.1
4.2 4.1 4.2 4.3 4.5 4.8 4.5 4.6 4.7 4.4 5.1 5.3 5.8 6.1 5.6 5.6 5.7 3.5 3.2 5.3 6.0 5.9 5.9 5.7 5.7 3.9 2.0 2.0 1.5 4.3 4.6 4.7 4.4 4.5 4.1 4.1 3.9 3.0 3.0 2.6 2.8 4.3 5.2
4.2 4.7 4.7 4.6 5.3 6.1 5.0 5.0 4.8 4.5 5.0 5.4 5.5 5.8 6.4 6.1 4.8 3.9 3.1 2.8 4.0 4.8 5.3 5.7 5.3 3.2 1.8 1.6 0.9 1.5 2.0 2.2 3.1 3.1 3.0 3.0 3.2 2.8 2.9 3.2 3.8 3.1 4.5
3.8 4.5 5.4 5.8 5.5 5.5 4.9 4.7 5.4 5.8 5.3 5.5 5.6 5.9 5.6 5.8 4.9 5.4 3.9 3.5 3.1 2.6 2.8 3.5 2.7 1.3 0.8 0.5 0.9 1.7 1.7 2.4 3.3 3.1 3.3 3.6 3.7 2.5 2.0 2.6 3.3 3.6 4.3
4.8 4.8 5.7 6.4 6.4 4.5 5.0 5.1 5.5 6.2 6.8 6.8 5.8 5.4 5.3 5.2 6.6 5.3 4.5 3.9 4.8 4.7 4.7 4.5 4.6 4.0 3.2 2.6 3.0 1.9 2.0 3.0 3.9 4.1 4.3 3.9 4.2 3.6 3.0 2.3 2.6 3.1 4.0
5.6 6.0 6.0 6.7 6.9 6.7 5.7 5.7 6.4 6.7 7.1 7.6 7.6 7.3 7.4 7.2 6.6 4.5 3.7 4.3 4.3 3.8 3.4 4.0 4.3 4.1 4.0 4.0 4.0 4.4 3.1 2.8 3.7 4.3 4.4 4.4 4.7 5.5 4.8 4.4 4.4 3.3 3.9
7.5 8.2 8.2 8.3 8.3 7.9 8.1 8.5 7.7 5.7 4.6 3.1 1.8 3.3 6.4 4.5 2.8 1.9 0.2 -0.1 -1.3 -0.7 2.1 3.3 4.7 4.7 3.9 3.7 3.9 4.3 4.3 4.6 4.5 4.6 4.9 5.1 5.1 4.6 4.9 4.8 5.0 4.9 4.7
7.3 8.3 8.4 8.3 8.7 8.7 8.7 8.6 8.2 8.7 7.1 5.7 4.6 3.7 2.7 1.9 1.0 -0.0 -0.5 -0.6 -1.3 0.3 2.1 3.0 4.7 5.2 5.1 5.2 5.4 4.3 4.7 4.5 4.6 4.0 4.5 4.7 4.9 5.8 5.0 4.6 4.3 4.5 4.6
4.8 6.2 7.6 8.0 8.0 7.7 7.6 7.6 7.5 7.3 7.1 7.6 7.6 6.9 6.1 3.7 1.3 0.8 1.1 -0.1 3.1 1.0 3.3 5.1 5.4 5.3 5.3 5.7 5.9 6.4 4.8 4.5 4.4 4.3 4.4 4.9 4.9 5.4 5.9 5.2 4.8 4.3 4.3
5.6 6.7 7.2 7.6 7.6 7.8 7.8 8.1 8.0 7.5 7.3 7.2 7.2 7.1 7.0 5.3 4.4 3.4 2.2 3.1 5.0 5.8 6.8 7.2 6.3 5.4 5.1 5.7 6.3 7.2 7.7 6.8 5.6 4.9 5.2 4.9 5.2 5.0 5.3 5.9 5.4 3.4 3.1
6.5 7.4 8.3 8.0 7.6 7.8 8.0 7.7 7.7 7.5 7.7 7.5 7.8 7.8 8.0 7.4 7.0 7.1 6.9 7.0 6.6 6.0 6.0 6.6 7.0 6.2 6.5 6.9 6.7 6.6 6.8 6.8 6.8 6.0 5.8 5.1 5.2 4.8 5.8 6.0 6.0 5.7 4.6
5.3 6.3 8.0 7.5 8.1 8.1 8.1 8.0 8.0 8.0 7.8 7.7 7.9 8.2 6.8 6.3 7.0 7.0 6.5 5.7 5.3 5.3 5.3 6.0 7.2 6.9 6.7 6.4 6.6 6.6 6.6 6.3 6.1 5.8 5.9 6.0 6.0 5.3 5.2 5.9 6.2 5.8 5.5
4.9 5.6 6.6 7.8 7.8 7.8 7.6 7.7 7.6 7.8 7.7 7.4 7.5 7.7 6.3 6.6 6.8 6.3 5.8 5.2 6.2 6.1 6.7 6.3 5.8 6.1 6.3 6.2 6.9 7.1 7.0 6.8 6.1 5.3 5.4 5.2 5.3 5.7 5.5 4.8 5.0 4.5 4.9
4.3 5.5 6.9 7.2 6.9 7.0 7.1 7.3 7.3 7.4 7.4 7.4 7.5 7.6 7.5 6.4 6.4 6.0 5.9 6.2 6.1 5.6 5.5 5.9 5.5 5.6 5.6 6.1 6.6 5.8 5.8 7.2 6.8 5.9 5.0 5.2 5.0 5.3 5.5 5.2 4.8 5.0 4.5
4.9 6.4 6.4 6.2 6.2 6.4 6.3 6.2 6.7 6.9 7.0 7.3 7.2 7.1 6.7 5.8 5.8 5.3 5.5 5.2 4.5 4.4 4.5 5.3 5.9 5.3 5.6 5.7 5.9 4.9 5.8 6.8 6.8 6.7 6.9 5.5 4.7 3.8 4.9 4.3 3.6 3.5 3.2
5.9 6.3 6.0 6.2 6.0 6.0 5.9 5.8 5.9 6.1 6.4 6.6 6.9 6.5 6.2 5.7 4.9 4.7 4.8 3.5 3.3 4.2 4.2 3.5 3.4 4.9 5.1 5.1 5.0 4.6 3.2 -0.8 3.1 2.7 4.6 5.0 4.5 3.6 3.8 4.1 4.1 4.0 4.2
4.3 4.9 5.2 5.7 5.5 5.8 5.8 5.4 5.2 5.2 5.4 5.2 5.2 4.8 4.3 3.8 4.0 4.1 3.2 2.2 2.2 2.8 2.4 2.2 3.0 2.9 3.6 3.6 3.9 2.8 -3.2 -4.6 -2.0 -3.0 4.1 3.9 4.4 4.3 4.0 4.3 4.5 3.7 4.2
Wind_Speed
6 6 7 6 5 4 4 5 5 3 4 4 3 3 4 5 6 6 6 7 7 8 8 7 8 10 8 5 4 5 5 4 4 4 7 6 5 9 6 16 11 14 17
6 7 7 6 4 3 2 2 2 4 3 3 2 2 3 6 5 6 6 6 6 8 10 8 10 8 9 10 5 7 5 5 5 6 5 5 5 4 4 6 5 9 11
6 4 5 4 6 7 7 6 6 5 4 2 1 3 5 4 4 6 6 7 7 7 7 9 11 10 11 8 5 6 6 5 4 4 4 4 5 1 8 3 5 6 9
7 6 6 6 6 5 5 5 4 3 3 3 3 4 5 6 6 6 7 6 6 6 6 5 8 11 11 2 7 10 7 4 4 5 5 4 4 5 2 3 4 4 5
7 6 5 6 5 5 4 4 3 4 4 4 5 6 6 6 6 6 3 4 5 6 6 6 7 9 10 8 9 16 12 10 7 6 5 3 5 3 5 3 4 3 5
3 2 2 2 2 2 3 4 4 5 5 5 7 7 7 7 10 10 7 4 5 5 6 6 6 9 7 11 15 18 11 8 8 5 5 8 11 4 3 5 3 3 4
4 4 4 4 4 5 5 5 6 6 5 6 7 7 9 9 11 12 12 5 5 6 7 6 6 7 8 6 7 10 12 14 11 6 8 9 10 5 4 2 4 4 4
5 5 5 5 5 5 4 4 4 4 5 6 7 8 9 9 13 13 14 7 6 7 7 7 7 7 7 7 6 5 6 7 8 8 12 13 10 9 6 6 5 4 3
3 2 2 2 2 2 4 5 4 4 5 7 9 10 10 11 12 14 11 8 7 7 7 7 8 8 11 12 8 7 6 6 7 12 10 11 9 12 9 3 7 2 5
7 7 7 6 5 5 5 6 4 4 6 6 8 8 10 12 13 15 11 6 6 7 7 7 13 13 13 15 9 7 7 9 5 4 4 7 11 10 14 10 9 7 6
9 7 7 7 7 6 5 4 4 6 8 9 10 11 11 12 13 14 15 10 9 10 9 8 8 12 14 16 14 10 10 7 6 5 5 4 4 5 6 7 10 10 11
10 9 6 6 6 6 7 5 6 6 8 9 9 9 8 10 12 14 17 14 12 9 11 9 6 8 11 12 8 13 14 8 4 4 4 7 7 7 7 6 10 10 10
9 8 9 7 6 6 6 7 6 7 5 5 6 7 8 6 5 4 4 5 2 2 2 4 8 9 8 6 9 9 8 4 5 4 7 9 8 7 6 7 8 11 12
9 9 10 11 10 6 7 8 9 9 8 8 7 7 6 6 6 5 4 3 2 2 4 4 6 7 10 10 7 7 5 6 7 8 8 8 7 4 6 7 6 8 6
8 9 9 8 10 9 7 7 9 10 11 11 11 9 9 10 9 8 5 5 5 5 7 3 3 3 5 5 5 7 6 6 7 7 7 8 8 7 8 7 8 4 7
9 9 8 9 10 10 9 11 10 13 18 16 14 12 11 13 17 18 10 8 7 8 3 3 7 7 7 7 7 7 7 8 7 7 8 9 10 8 8 5 7 7 7
9 10 10 11 11 11 12 13 12 12 12 14 16 17 16 16 18 13 11 9 9 7 5 7 7 7 8 8 9 9 9 9 10 7 8 9 8 9 8 6 5 5 7
7 12 10 10 10 10 10 10 10 11 13 11 9 11 13 16 12 13 13 3 7 6 6 9 9 10 9 10 10 11 10 9 9 9 9 9 10 10 8 7 8 10 9
7 8 10 10 11 13 12 11 11 12 10 9 10 10 10 13 13 17 16 6 9 9 9 9 9 10 10 10 11 11 12 10 10 8 9 10 10 9 10 10 9 11 9
7 19 16 11 10 11 10 11 9 10 10 9 10 12 11 12 8 10 11 10 9 9 9 9 10 10 11 10 11 11 10 10 10 9 10 10 9 9 10 10 9 9 8
8 10 21 10 11 12 12 12 12 11 10 10 10 12 19 9 10 11 11 11 11 10 10 10 10 10 10 10 11 10 12 11 10 9 9 9 10 9 9 10 10 10 9
6 10 11 12 12 12 12 12 11 12 12 11 8 12 15 8 10 11 12 11 11 10 10 10 9 10 10 10 11 10 10 11 10 8 9 10 10 10 8 8 9 10 8
6 11 12 11 11 16 12 11 11 11 11 10 10 11 10 10 10 10 11 11 9 9 10 10 12 10 9 10 11 10 9 11 11 9 11 11 10 10 9 7 9 9 6
6 10 11 11 11 11 11 11 11 14 11 10 10 10 10 10 10 11 11 10 10 10 10 11 8 10 11 11 9 10 11 9 9 10 14 10 11 10 9 8 7 6 5
5 9 11 11 11 11 11 10 10 11 10 10 10 10 10 10 10 10 9 10 11 9 12 9 9 11 9 12 12 14 13 14 9 7 5 7 10 9 6 6 6 6 6
5 8 9 10 11 11 11 10 10 10 10 9 10 10 10 10 9 9 9 11 9 10 12 10 11 14 17 12 13 11 13 13 10 14 9 6 6 6 6 10 10 5 5
Wind_Direction
128 129 145 139 170 168 179 168 166 210 188 172 210 242 237 233 233 240 244 245 239 253 240 225 236 237 242 226 213 203 180 157 199 230 223 231 242 238 200 204 213 200 217
112 120 131 135 124 156 181 105 202 154 151 121 72 18 304 262 261 258 262 258 252 254 256 242 240 244 245 235 196 221 221 178 178 235 222 230 243 292 226 189 219 209 213
82 107 115 112 62 89 78 69 59 49 29 10 335 308 303 295 290 263 250 255 251 248 256 258 263 247 243 244 249 240 240 223 192 203 244 230 217 186 263 254 213 231 214
57 55 63 59 59 63 64 55 47 34 8 341 328 316 293 282 277 276 272 267 252 263 267 260 268 270 268 250 310 262 248 240 286 244 240 242 221 237 184 215 257 231 239
67 50 39 39 29 20 0 340 332 332 314 303 300 292 279 280 284 282 289 301 300 284 277 271 273 276 270 214 198 254 253 236 226 231 253 246 248 247 234 215 218 241 252
86 57 66 48 360 320 313 299 297 285 282 285 286 277 280 283 274 283 290 276 275 268 268 271 267 283 274 236 219 231 221 216 227 219 229 240 255 225 229 237 212 169 250
175 212 217 233 245 250 257 271 284 291 296 292 280 269 268 262 262 272 276 261 257 261 264 263 271 282 276 256 246 238 231 219 211 213 229 232 245 229 241 254 232 214 235
222 222 229 239 247 261 287 313 322 318 308 296 291 281 277 270 256 263 272 266 248 248 251 252 251 254 260 272 272 266 239 223 213 215 224 241 232 239 215 228 237 230 279
345 324 326 62 32 327 299 288 281 284 281 281 283 284 282 280 259 259 266 273 264 253 246 249 248 247 235 242 245 254 252 249 229 229 225 237 241 239 226 202 250 238 270
18 2 359 357 340 309 285 278 264 264 263 275 281 278 274 280 271 263 260 256 259 269 269 249 248 249 242 239 230 230 241 247 232 250 241 239 235 232 232 217 241 226 231
348 348 338 333 323 314 317 316 290 291 291 282 281 281 275 269 266 255 254 259 264 269 272 266 254 245 244 250 233 224 226 227 228 234 241 247 247 236 233 213 214 220 234
353 341 335 330 329 320 309 302 299 287 282 278 278 282 277 269 256 261 256 255 260 265 266 269 266 315 307 260 246 228 232 214 212 224 239 255 247 243 243 233 234 214 225
347 337 331 319 316 319 313 302 305 302 287 286 290 288 287 279 293 330 113 149 131 146 263 296 317 317 307 297 262 245 229 213 226 215 236 250 250 244 233 245 243 234 234
347 334 329 323 322 331 325 308 299 291 289 291 283 280 278 271 271 272 230 237 221 228 264 249 252 261 259 257 256 238 216 213 213 225 235 249 254 233 231 230 238 238 231
327 321 316 315 315 309 293 289 291 288 282 287 285 287 294 290 282 257 211 275 297 277 291 247 263 251 262 263 245 241 222 213 221 228 236 248 252 246 242 231 229 211 225
334 330 324 321 317 312 307 312 278 263 282 290 280 277 288 263 272 275 267 283 282 255 217 255 276 268 256 258 255 245 227 226 227 230 234 240 246 239 247 234 224 215 233
320 319 318 317 313 312 308 308 304 299 269 278 283 284 285 262 283 299 290 281 224 177 243 241 248 247 249 251 249 239 232 227 221 220 231 237 245 245 224 226 235 233 237
303 306 309 305 307 304 296 297 295 294 297 297 281 287 293 300 282 282 302 24 300 203 241 249 253 255 247 246 246 245 230 227 220 224 228 234 239 243 245 237 230 236 233
302 309 308 309 307 301 297 296 295 291 288 302 312 304 302 293 298 293 291 267 271 269 259 248 241 245 246 246 246 245 239 231 224 221 223 233 235 231 237 241 230 229 211
321 319 318 313 312 310 312 310 306 307 300 294 298 296 301 300 295 299 291 285 281 272 261 258 256 251 250 246 238 237 240 239 239 223 219 227 231 227 235 233 229 235 222
329 325 325 320 318 314 306 300 301 291 292 283 283 294 291 287 294 289 289 283 276 269 264 264 262 251 247 246 246 238 232 233 233 232 225 228 232 230 229 237 235 228 225
333 337 327 319 314 311 310 305 302 298 292 282 287 292 281 289 286 281 277 275 273 269 268 265 259 256 249 248 251 247 237 231 227 222 220 225 231 233 230 225 232 234 231
342 340 322 314 311 312 309 308 302 299 300 296 292 287 289 283 278 281 283 284 293 297 289 290 271 258 251 245 242 240 247 247 236 224 223 223 223 225 229 224 219 228 225
340 331 323 314 313 310 308 304 301 297 294 293 289 284 285 286 283 292 291 295 296 296 290 286 298 302 271 253 240 233 240 247 243 232 227 222 221 220 225 218 210 212 216
319 325 328 321 317 314 309 304 302 299 295 292 290 289 289 289 290 288 292 297 288 296 294 310 299 294 310 309 254 243 245 232 216 237 239 230 231 209 199 216 219 213 201
289 321 332 322 317 315 314 311 304 301 299 298 294 289 290 291 289 292 288 285 291 288 302 293 290 300 293 296 290 257 239 242 234 210 210 217 213 212 211 225 224 215 206